,,,PA_Meas_PMT16A,,PR_Meas_QMR101_102,,RH_Meas_QMH101,,SR_Meas_QMS101,,TA_Meas_QMH101,,GenWind,,GenWind,
date,time,status,PA,status,PR,status,RH,status,SR,status,TA,status,DirAvg,status,SpdAvg,
2009-04-28, 00:00:04,VALID,1010.44,VALID,0,VALID,4,VALID,0,VALID,24.9608,VALID,43,VALID,0.319922,
2009-04-28, 00:01:04,VALID,1010.45,VALID,0,VALID,4,VALID,0,VALID,24.9627,VALID,43,VALID,0.166406,
2009-04-28, 00:02:04,VALID,1010.43,VALID,0,VALID,4,VALID,0,VALID,24.9608,VALID,21,VALID,0.0929687,
2009-04-28, 00:03:04,VALID,1010.43,VALID,0,VALID,4,VALID,0,VALID,24.9608,VALID,21,VALID,0,
2009-04-28, 00:04:04,VALID,1010.44,VALID,0,VALID,4,VALID,0.105969,VALID,24.9394,VALID,21,VALID,0,
2009-04-28, 00:05:04,VALID,1010.46,VALID,0,VALID,4,VALID,0.105969,VALID,24.9394,VALID,21,VALID,0,
2009-04-28, 00:06:04,VALID,1010.44,VALID,0,VALID,4,VALID,0.105969,VALID,24.9394,VALID,21,VALID,0,
2009-04-28, 00:07:04,VALID,1010.44,VALID,0,VALID,4,VALID,0,VALID,24.9199,VALID,21,VALID,0,
2009-04-28, 00:08:04,VALID,1010.43,VALID,0,VALID,4,VALID,0,VALID,24.9394,VALID,21,VALID,0,
2009-04-28, 00:09:04,VALID,1010.4,VALID,0,VALID,4,VALID,0,VALID,24.9004,VALID,21,VALID,0,
2009-04-28, 00:10:04,VALID,1010.43,VALID,0,VALID,4,VALID,0,VALID,24.9004,VALID,21,VALID,0,
2009-04-28, 00:11:04,VALID,1010.38,VALID,0,VALID,4,VALID,0,VALID,24.9004,VALID,21,VALID,0,
2009-04-28, 00:12:04,VALID,1010.38,VALID,0,VALID,4,VALID,0,VALID,24.9004,VALID,21,VALID,0,
2009-04-28, 00:13:04,VALID,1010.37,VALID,0,VALID,4,VALID,0,VALID,24.8809,VALID,21,VALID,0.111328,
2009-04-28, 00:14:04,VALID,1010.37,VALID,0,VALID,4,VALID,0,VALID,24.8809,VALID,21,VALID,0,
2009-04-28, 00:15:04,VALID,1010.33,VALID,0,VALID,4,VALID,0.105969,VALID,24.8809,VALID,21,VALID,0,
2009-04-28, 00:16:04,VALID,1010.31,VALID,0,VALID,4,VALID,0,VALID,24.9004,VALID,21,VALID,0,
2009-04-28, 00:17:04,VALID,1010.3,VALID,0,VALID,4,VALID,0,VALID,24.9004,VALID,21,VALID,0,
2009-04-28, 00:18:05,VALID,1010.27,VALID,0,VALID,4,VALID,0.105969,VALID,24.9004,VALID,21,VALID,0,
2009-04-28, 00:19:05,VALID,1010.28,VALID,0,VALID,4,VALID,0,VALID,24.9199,VALID,21,VALID,0,
2009-04-28, 00:20:05,VALID,1010.27,VALID,0,VALID,4,VALID,0.105969,VALID,24.9004,VALID,21,VALID,0,
2009-04-28, 00:21:05,VALID,1010.26,VALID,0,VALID,4,VALID,0,VALID,24.9199,VALID,21,VALID,0,
2009-04-28, 00:22:05,VALID,1010.26,VALID,0,VALID,4,VALID,0,VALID,24.9004,VALID,21,VALID,0,
2009-04-28, 00:23:05,VALID,1010.26,VALID,0,VALID,4,VALID,0,VALID,24.9199,VALID,21,VALID,0,
2009-04-28, 00:24:05,VALID,1010.22,VALID,0,VALID,4,VALID,0,VALID,24.9199,VALID,21,VALID,0,
2009-04-28, 00:25:05,VALID,1010.22,VALID,0,VALID,4,VALID,0.105969,VALID,24.9394,VALID,21,VALID,0,
2009-04-28, 00:26:05,VALID,1010.2,VALID,0,VALID,4,VALID,0,VALID,24.9394,VALID,21,VALID,0,
2009-04-28, 00:27:05,VALID,1010.16,VALID,0,VALID,4,VALID,0,VALID,24.9394,VALID,21,VALID,0,
2009-04-28, 00:28:05,VALID,1010.14,VALID,0,VALID,4,VALID,0,VALID,24.9394,VALID,21,VALID,0,
2009-04-28, 00:29:05,VALID,1010.14,VALID,0,VALID,4,VALID,0,VALID,24.9608,VALID,21,VALID,0,
2009-04-28, 00:30:05,VALID,1010.1,VALID,0,VALID,4,VALID,0,VALID,24.9589,VALID,21,VALID,0,
2009-04-28, 00:31:05,VALID,1010.09,VALID,0,VALID,4,VALID,0,VALID,24.9608,VALID,21,VALID,0,
2009-04-28, 00:32:05,VALID,1010.08,VALID,0,VALID,4,VALID,0,VALID,24.9608,VALID,21,VALID,0,
2009-04-28, 00:33:05,VALID,1010.07,VALID,0,VALID,4,VALID,0,VALID,24.9608,VALID,21,VALID,0,
2009-04-28, 00:34:05,VALID,1010.06,VALID,0,VALID,4,VALID,0,VALID,24.9413,VALID,21,VALID,0,
2009-04-28, 00:35:05,VALID,1010.07,VALID,0,VALID,4,VALID,0,VALID,24.9413,VALID,21,VALID,0,
2009-04-28, 00:36:05,VALID,1010.08,VALID,0,VALID,4,VALID,0,VALID,24.9413,VALID,21,VALID,0,
2009-04-28, 00:37:05,VALID,1010.07,VALID,0,VALID,4,VALID,0,VALID,24.9413,VALID,21,VALID,0,
2009-04-28, 00:38:05,VALID,1010.07,VALID,0,VALID,4,VALID,0,VALID,24.9413,VALID,21,VALID,0,
2009-04-28, 00:39:05,VALID,1010.04,VALID,0,VALID,4,VALID,0,VALID,24.9218,VALID,21,VALID,0,
2009-04-28, 00:40:05,VALID,1010.04,VALID,0,VALID,4,VALID,0,VALID,24.9218,VALID,21,VALID,0,
2009-04-28, 00:41:05,VALID,1009.99,VALID,0,VALID,4,VALID,0,VALID,24.8828,VALID,21,VALID,0,
2009-04-28, 00:42:05,VALID,1010.01,VALID,0,VALID,4,VALID,0,VALID,24.8809,VALID,41,VALID,0.389062,
2009-04-28, 00:43:05,VALID,1009.99,VALID,0,VALID,4,VALID,0,VALID,24.9218,VALID,41,VALID,0,
2009-04-28, 00:44:05,VALID,1009.96,VALID,0,VALID,4,VALID,0,VALID,24.9004,VALID,41,VALID,0,
2009-04-28, 00:45:05,VALID,1009.94,VALID,0,VALID,4,VALID,0,VALID,24.9218,VALID,41,VALID,0,
2009-04-28, 00:46:05,VALID,1009.95,VALID,0,VALID,4,VALID,0,VALID,24.9218,VALID,41,VALID,0,
2009-04-28, 00:47:05,VALID,1009.92,VALID,0,VALID,4,VALID,0,VALID,24.9199,VALID,41,VALID,0,
2009-04-28, 00:48:05,VALID,1009.9,VALID,0,VALID,4,VALID,0,VALID,24.9004,VALID,41,VALID,0,
2009-04-28, 00:49:05,VALID,1009.87,VALID,0,VALID,4,VALID,0,VALID,24.9218,VALID,41,VALID,0,
2009-04-28, 00:50:05,VALID,1009.89,VALID,0,VALID,4,VALID,0,VALID,24.9004,VALID,59,VALID,0.298438,
2009-04-28, 00:51:05,VALID,1009.88,VALID,0,VALID,4,VALID,0,VALID,24.9023,VALID,83,VALID,0.612891,
2009-04-28, 00:52:05,VALID,1009.88,VALID,0,VALID,4,VALID,0,VALID,24.9218,VALID,85,VALID,0.256641,
2009-04-28, 00:53:05,VALID,1009.85,VALID,0,VALID,4,VALID,0,VALID,24.9023,VALID,85,VALID,0.510156,
2009-04-28, 00:54:05,VALID,1009.82,VALID,0,VALID,4,VALID,0,VALID,24.9004,VALID,105,VALID,0.66875,
2009-04-28, 00:55:05,VALID,1009.82,VALID,0,VALID,4,VALID,0,VALID,24.8809,VALID,87,VALID,0.408984,
2009-04-28, 00:56:05,VALID,1009.82,VALID,0,VALID,4,VALID,0,VALID,24.9023,VALID,68,VALID,0.615234,
2009-04-28, 00:57:05,VALID,1009.84,VALID,0,VALID,4,VALID,0,VALID,24.8809,VALID,66,VALID,0.533984,
2009-04-28, 00:58:05,VALID,1009.82,VALID,0,VALID,4,VALID,0,VALID,24.8828,VALID,69,VALID,0.346875,
2009-04-28, 00:59:05,VALID,1009.83,VALID,0,VALID,4,VALID,0,VALID,24.8828,VALID,69,VALID,0,
2009-04-28, 01:00:05,VALID,1009.83,VALID,0,VALID,4,VALID,0,VALID,24.8633,VALID,69,VALID,0.0957031,
2009-04-28, 01:01:05,VALID,1009.84,VALID,0,VALID,4,VALID,0,VALID,24.8633,VALID,69,VALID,0,
2009-04-28, 01:02:05,VALID,1009.86,VALID,0,VALID,4,VALID,0,VALID,24.8633,VALID,64,VALID,0.389453,
2009-04-28, 01:03:05,VALID,1009.85,VALID,0,VALID,4,VALID,0,VALID,24.8438,VALID,64,VALID,0,
2009-04-28, 01:04:05,VALID,1009.85,VALID,0,VALID,4,VALID,0,VALID,24.803,VALID,65,VALID,0,
2009-04-28, 01:05:05,VALID,1009.86,VALID,0,VALID,4,VALID,0,VALID,24.8244,VALID,64,VALID,0,
2009-04-28, 01:06:05,VALID,1009.89,VALID,0,VALID,4,VALID,0,VALID,24.803,VALID,64,VALID,0,
2009-04-28, 01:07:05,VALID,1009.88,VALID,0,VALID,4,VALID,0,VALID,24.8049,VALID,64,VALID,0,
2009-04-28, 01:08:05,VALID,1009.89,VALID,0,VALID,4,VALID,0,VALID,24.8049,VALID,52,VALID,0.525781,
2009-04-28, 01:09:05,VALID,1009.9,VALID,0,VALID,4,VALID,0,VALID,24.7854,VALID,49,VALID,0.622266,
2009-04-28, 01:10:05,VALID,1009.91,VALID,0,VALID,4,VALID,0,VALID,24.764,VALID,43,VALID,0.560938,
2009-04-28, 01:11:05,VALID,1009.89,VALID,0,VALID,4,VALID,0,VALID,24.7445,VALID,32,VALID,0.735156,
2009-04-28, 01:12:05,VALID,1009.89,VALID,0,VALID,4,VALID,0,VALID,24.725,VALID,32,VALID,0.451172,
2009-04-28, 01:13:05,VALID,1009.89,VALID,0,VALID,4,VALID,0,VALID,24.7074,VALID,32,VALID,0.394922,
2009-04-28, 01:14:05,VALID,1009.88,VALID,0,VALID,4,VALID,0.105969,VALID,24.7055,VALID,32,VALID,0.00664063,
2009-04-28, 01:15:05,VALID,1009.87,VALID,0,VALID,4,VALID,0.105969,VALID,24.7055,VALID,32,VALID,0,
2009-04-28, 01:16:05,VALID,1009.9,VALID,0,VALID,4,VALID,0.105969,VALID,24.6471,VALID,32,VALID,0.112891,
2009-04-28, 01:17:05,VALID,1009.92,VALID,0,VALID,4,VALID,0.105969,VALID,24.6666,VALID,32,VALID,0.00117188,
2009-04-28, 01:18:05,VALID,1009.92,VALID,0,VALID,4,VALID,0,VALID,24.6471,VALID,58,VALID,0.357031,
2009-04-28, 01:19:05,VALID,1009.97,VALID,0,VALID,4,VALID,0,VALID,24.6471,VALID,60,VALID,0,
2009-04-28, 01:20:05,VALID,1009.95,VALID,0,VALID,4,VALID,0.105969,VALID,24.6471,VALID,60,VALID,0,
2009-04-28, 01:21:05,VALID,1009.96,VALID,0,VALID,4,VALID,0.105969,VALID,24.6471,VALID,60,VALID,0.00078125,
2009-04-28, 01:22:05,VALID,1009.98,VALID,0,VALID,4,VALID,0.105969,VALID,24.6062,VALID,60,VALID,0.501562,
2009-04-28, 01:23:05,VALID,1009.98,VALID,0,VALID,4,VALID,0.105969,VALID,24.6062,VALID,60,VALID,0.278516,
2009-04-28, 01:24:05,VALID,1009.98,VALID,0,VALID,4,VALID,0,VALID,24.6081,VALID,60,VALID,0,
2009-04-28, 01:25:05,VALID,1009.98,VALID,0,VALID,4,VALID,0.105969,VALID,24.6276,VALID,60,VALID,0,
2009-04-28, 01:26:05,VALID,1009.99,VALID,0,VALID,4,VALID,0,VALID,24.6081,VALID,59,VALID,0.126172,
2009-04-28, 01:27:05,VALID,1009.96,VALID,0,VALID,4,VALID,0.105969,VALID,24.5867,VALID,58,VALID,0,
2009-04-28, 01:28:05,VALID,1009.99,VALID,0,VALID,4,VALID,0.105969,VALID,24.6081,VALID,58,VALID,0,
2009-04-28, 01:29:05,VALID,1009.96,VALID,0,VALID,4,VALID,0,VALID,24.6081,VALID,58,VALID,0,
2009-04-28, 01:30:05,VALID,1009.96,VALID,0,VALID,4,VALID,0.105969,VALID,24.6276,VALID,58,VALID,0,
2009-04-28, 01:31:05,VALID,1009.96,VALID,0,VALID,4,VALID,0.105969,VALID,24.6276,VALID,58,VALID,0,
2009-04-28, 01:32:05,VALID,1009.93,VALID,0,VALID,4,VALID,0.105969,VALID,24.6062,VALID,58,VALID,0,
2009-04-28, 01:33:05,VALID,1009.91,VALID,0,VALID,4,VALID,0.105969,VALID,24.6471,VALID,58,VALID,0,
2009-04-28, 01:34:05,VALID,1009.9,VALID,0,VALID,4,VALID,0.105969,VALID,24.6471,VALID,58,VALID,0,
2009-04-28, 01:35:05,VALID,1009.88,VALID,0,VALID,4,VALID,0.105969,VALID,24.6452,VALID,58,VALID,0,
2009-04-28, 01:36:05,VALID,1009.83,VALID,0,VALID,4,VALID,0.105969,VALID,24.6666,VALID,58,VALID,0,
2009-04-28, 01:37:05,VALID,1009.83,VALID,0,VALID,4,VALID,0,VALID,24.686,VALID,58,VALID,0,
2009-04-28, 01:38:05,VALID,1009.81,VALID,0,VALID,4,VALID,0.105969,VALID,24.686,VALID,58,VALID,0,
2009-04-28, 01:39:05,VALID,1009.79,VALID,0,VALID,4,VALID,0,VALID,24.7037,VALID,58,VALID,0,
2009-04-28, 01:40:05,VALID,1009.76,VALID,0,VALID,4,VALID,0.105969,VALID,24.7037,VALID,58,VALID,0,
2009-04-28, 01:41:05,VALID,1009.77,VALID,0,VALID,4,VALID,0.105969,VALID,24.725,VALID,58,VALID,0,
2009-04-28, 01:42:05,VALID,1009.75,VALID,0,VALID,4,VALID,0.105969,VALID,24.725,VALID,45,VALID,0,
2009-04-28, 01:43:05,VALID,1009.74,VALID,0,VALID,4,VALID,0,VALID,24.7445,VALID,35,VALID,0,
2009-04-28, 01:44:05,VALID,1009.69,VALID,0,VALID,4,VALID,0,VALID,24.7269,VALID,348,VALID,0,
2009-04-28, 01:45:05,VALID,1009.68,VALID,0,VALID,4,VALID,0,VALID,24.7464,VALID,339,VALID,0,
2009-04-28, 01:46:05,VALID,1009.66,VALID,0,VALID,4,VALID,0,VALID,24.7659,VALID,339,VALID,0,
2009-04-28, 01:47:05,VALID,1009.62,VALID,0,VALID,4,VALID,0,VALID,24.7659,VALID,339,VALID,0,
2009-04-28, 01:48:05,VALID,1009.57,VALID,0,VALID,4,VALID,0,VALID,24.7659,VALID,333,VALID,0,
2009-04-28, 01:49:05,VALID,1009.56,VALID,0,VALID,4,VALID,0,VALID,24.7659,VALID,332,VALID,0,
2009-04-28, 01:50:05,VALID,1009.52,VALID,0,VALID,4,VALID,0,VALID,24.7854,VALID,332,VALID,0,
2009-04-28, 01:51:05,VALID,1009.48,VALID,0,VALID,4,VALID,0,VALID,24.7854,VALID,332,VALID,0,
2009-04-28, 01:52:05,VALID,1009.48,VALID,0,VALID,4,VALID,0,VALID,24.8049,VALID,308,VALID,0.128516,
2009-04-28, 01:53:05,VALID,1009.46,VALID,0,VALID,4,VALID,0,VALID,24.803,VALID,307,VALID,0,
2009-04-28, 01:54:05,VALID,1009.43,VALID,0,VALID,4,VALID,0,VALID,24.8244,VALID,307,VALID,0.385938,
2009-04-28, 01:55:05,VALID,1009.41,VALID,0,VALID,4,VALID,0,VALID,24.8438,VALID,307,VALID,0.189844,
2009-04-28, 01:56:05,VALID,1009.37,VALID,0,VALID,4,VALID,0,VALID,24.8438,VALID,307,VALID,0.274219,
2009-04-28, 01:57:05,VALID,1009.35,VALID,0,VALID,4,VALID,0,VALID,24.8244,VALID,307,VALID,0.308203,
2009-04-28, 01:58:05,VALID,1009.33,VALID,0,VALID,4,VALID,0,VALID,24.7835,VALID,307,VALID,0.183984,
2009-04-28, 01:59:05,VALID,1009.33,VALID,0,VALID,4,VALID,0,VALID,24.7835,VALID,307,VALID,0.0929687,
2009-04-28, 02:00:05,VALID,1009.31,VALID,0,VALID,4,VALID,0,VALID,24.7835,VALID,307,VALID,0,
2009-04-28, 02:01:05,VALID,1009.33,VALID,0,VALID,4,VALID,0.105969,VALID,24.764,VALID,307,VALID,0,
2009-04-28, 02:02:05,VALID,1009.34,VALID,0,VALID,4,VALID,0.105969,VALID,24.7445,VALID,307,VALID,0,
2009-04-28, 02:03:05,VALID,1009.32,VALID,0,VALID,4,VALID,0.105969,VALID,24.725,VALID,307,VALID,0,
2009-04-28, 02:04:05,VALID,1009.36,VALID,0,VALID,4,VALID,0.105969,VALID,24.725,VALID,307,VALID,0.370703,
2009-04-28, 02:05:05,VALID,1009.37,VALID,0,VALID,4,VALID,0,VALID,24.7055,VALID,307,VALID,0.411719,
2009-04-28, 02:06:05,VALID,1009.38,VALID,0,VALID,4,VALID,0,VALID,24.6666,VALID,307,VALID,0.366797,
2009-04-28, 02:07:05,VALID,1009.36,VALID,0,VALID,4,VALID,0,VALID,24.6471,VALID,307,VALID,0.310937,
2009-04-28, 02:08:05,VALID,1009.36,VALID,0,VALID,4,VALID,0,VALID,24.6276,VALID,307,VALID,0,
2009-04-28, 02:09:05,VALID,1009.36,VALID,0,VALID,4,VALID,0,VALID,24.6276,VALID,307,VALID,0,
2009-04-28, 02:10:05,VALID,1009.37,VALID,0,VALID,4,VALID,0,VALID,24.6276,VALID,307,VALID,0,
2009-04-28, 02:11:05,VALID,1009.34,VALID,0,VALID,4,VALID,0,VALID,24.6276,VALID,307,VALID,0,
2009-04-28, 02:12:05,VALID,1009.37,VALID,0,VALID,4,VALID,0,VALID,24.6099,VALID,307,VALID,0,
2009-04-28, 02:13:05,VALID,1009.36,VALID,0,VALID,4,VALID,0.105969,VALID,24.6081,VALID,59,VALID,0.487109,
2009-04-28, 02:14:05,VALID,1009.36,VALID,0,VALID,4,VALID,0,VALID,24.6099,VALID,59,VALID,0.424219,
2009-04-28, 02:15:05,VALID,1009.37,VALID,0,VALID,4,VALID,0,VALID,24.6099,VALID,59,VALID,0.371875,
2009-04-28, 02:16:05,VALID,1009.37,VALID,0,VALID,4,VALID,0,VALID,24.6099,VALID,59,VALID,0.551172,
2009-04-28, 02:17:05,VALID,1009.38,VALID,0,VALID,4,VALID,0,VALID,24.6099,VALID,63,VALID,0.509766,
2009-04-28, 02:18:05,VALID,1009.4,VALID,0,VALID,4,VALID,0,VALID,24.6099,VALID,67,VALID,0.585938,
2009-04-28, 02:19:05,VALID,1009.41,VALID,0,VALID,4,VALID,0,VALID,24.6313,VALID,72,VALID,0.686328,
2009-04-28, 02:20:05,VALID,1009.39,VALID,0,VALID,4,VALID,0,VALID,24.5905,VALID,86,VALID,1.01875,
2009-04-28, 02:21:05,VALID,1009.41,VALID,0,VALID,4,VALID,0,VALID,24.6099,VALID,83,VALID,0.829687,
2009-04-28, 02:22:05,VALID,1009.45,VALID,0,VALID,4,VALID,0,VALID,24.5905,VALID,91,VALID,0.805859,
2009-04-28, 02:23:05,VALID,1009.45,VALID,0,VALID,4,VALID,0,VALID,24.571,VALID,87,VALID,0.583594,
2009-04-28, 02:24:05,VALID,1009.45,VALID,0,VALID,4,VALID,0,VALID,24.5905,VALID,91,VALID,0.798047,
2009-04-28, 02:25:05,VALID,1009.48,VALID,0,VALID,4,VALID,0,VALID,24.571,VALID,75,VALID,0.610156,
2009-04-28, 02:26:05,VALID,1009.47,VALID,0,VALID,4,VALID,0,VALID,24.571,VALID,81,VALID,0.738281,
2009-04-28, 02:27:05,VALID,1009.48,VALID,0,VALID,4,VALID,0,VALID,24.571,VALID,76,VALID,0.732031,
2009-04-28, 02:28:05,VALID,1009.49,VALID,0,VALID,4,VALID,0,VALID,24.5905,VALID,90,VALID,0.789453,
2009-04-28, 02:29:05,VALID,1009.52,VALID,0,VALID,4,VALID,0,VALID,24.5691,VALID,78,VALID,0.558203,
2009-04-28, 02:30:05,VALID,1009.52,VALID,0,VALID,4,VALID,0,VALID,24.5905,VALID,68,VALID,0.379297,
2009-04-28, 02:31:05,VALID,1009.49,VALID,0,VALID,4,VALID,0,VALID,24.5691,VALID,65,VALID,0.0234375,
2009-04-28, 02:32:05,VALID,1009.52,VALID,0,VALID,4,VALID,0,VALID,24.571,VALID,65,VALID,0,
2009-04-28, 02:33:05,VALID,1009.53,VALID,0,VALID,4,VALID,0,VALID,24.571,VALID,67,VALID,0.569531,
2009-04-28, 02:34:05,VALID,1009.51,VALID,0,VALID,4,VALID,0,VALID,24.5905,VALID,68,VALID,0.366016,
2009-04-28, 02:35:05,VALID,1009.53,VALID,0,VALID,4,VALID,0,VALID,24.5496,VALID,51,VALID,0.441406,
2009-04-28, 02:36:05,VALID,1009.52,VALID,0,VALID,4,VALID,0,VALID,24.5515,VALID,56,VALID,0.06875,
2009-04-28, 02:37:05,VALID,1009.54,VALID,0,VALID,4,VALID,0,VALID,24.5515,VALID,57,VALID,0.523828,
2009-04-28, 02:38:05,VALID,1009.55,VALID,0,VALID,4,VALID,0,VALID,24.5301,VALID,75,VALID,0.666016,
2009-04-28, 02:39:05,VALID,1009.52,VALID,0,VALID,4,VALID,0,VALID,24.5301,VALID,65,VALID,0.905469,
2009-04-28, 02:40:05,VALID,1009.57,VALID,0,VALID,4,VALID,0,VALID,24.5301,VALID,73,VALID,0.542578,
2009-04-28, 02:41:05,VALID,1009.53,VALID,0,VALID,4,VALID,0,VALID,24.5496,VALID,24,VALID,0.253906,
2009-04-28, 02:42:05,VALID,1009.52,VALID,0,VALID,4,VALID,0,VALID,24.5496,VALID,22,VALID,0,
2009-04-28, 02:43:05,VALID,1009.53,VALID,0,VALID,4,VALID,0,VALID,24.5301,VALID,22,VALID,0,
2009-04-28, 02:44:05,VALID,1009.47,VALID,0,VALID,4,VALID,0,VALID,24.571,VALID,22,VALID,0.457031,
2009-04-28, 02:45:05,VALID,1009.47,VALID,0,VALID,4,VALID,0,VALID,24.5301,VALID,346,VALID,0.683203,
2009-04-28, 02:46:05,VALID,1009.45,VALID,0,VALID,4,VALID,0,VALID,24.5515,VALID,48,VALID,0.9125,
2009-04-28, 02:47:05,VALID,1009.42,VALID,0,VALID,4,VALID,0,VALID,24.5905,VALID,25,VALID,0.43125,
2009-04-28, 02:48:05,VALID,1009.43,VALID,0,VALID,4,VALID,0,VALID,24.5905,VALID,19,VALID,0.580859,
2009-04-28, 02:49:05,VALID,1009.45,VALID,0,VALID,4,VALID,0,VALID,24.5905,VALID,42,VALID,0.455078,
2009-04-28, 02:50:05,VALID,1009.46,VALID,0,VALID,4,VALID,0,VALID,24.571,VALID,49,VALID,0.203125,
2009-04-28, 02:51:05,VALID,1009.46,VALID,0,VALID,4,VALID,0,VALID,24.5301,VALID,42,VALID,0.298438,
2009-04-28, 02:52:05,VALID,1009.46,VALID,0,VALID,4,VALID,0,VALID,24.5515,VALID,63,VALID,0.134766,
2009-04-28, 02:53:05,VALID,1009.46,VALID,0,VALID,4,VALID,0,VALID,24.5301,VALID,53,VALID,0.269531,
2009-04-28, 02:54:05,VALID,1009.48,VALID,0,VALID,4,VALID,0,VALID,24.532,VALID,26,VALID,0.200781,
2009-04-28, 02:55:05,VALID,1009.45,VALID,0,VALID,4,VALID,0,VALID,24.532,VALID,6,VALID,0.423828,
2009-04-28, 02:56:05,VALID,1009.46,VALID,0,VALID,4,VALID,0,VALID,24.532,VALID,6,VALID,0.20625,
2009-04-28, 02:57:05,VALID,1009.48,VALID,0,VALID,4,VALID,0,VALID,24.5515,VALID,6,VALID,0.00234375,
2009-04-28, 02:58:05,VALID,1009.48,VALID,0,VALID,4,VALID,0,VALID,24.5515,VALID,6,VALID,0.0722656,
2009-04-28, 02:59:05,VALID,1009.52,VALID,0,VALID,4,VALID,0,VALID,24.571,VALID,1,VALID,0.114844,
2009-04-28, 03:00:05,VALID,1009.53,VALID,0,VALID,4,VALID,0,VALID,24.571,VALID,314,VALID,0.258984,
2009-04-28, 03:01:04,VALID,1009.54,VALID,0,VALID,4,VALID,0,VALID,24.6099,VALID,212,VALID,0.691406,
2009-04-28, 03:02:04,VALID,1009.54,VALID,0,VALID,4,VALID,0,VALID,24.6276,VALID,207,VALID,0.677344,
2009-04-28, 03:03:04,VALID,1009.53,VALID,0,VALID,4,VALID,0,VALID,24.6684,VALID,207,VALID,0.500391,
2009-04-28, 03:04:04,VALID,1009.54,VALID,0,VALID,4,VALID,0,VALID,24.6471,VALID,207,VALID,0.446875,
2009-04-28, 03:05:04,VALID,1009.53,VALID,0,VALID,4,VALID,0,VALID,24.6684,VALID,207,VALID,0.308984,
2009-04-28, 03:06:04,VALID,1009.55,VALID,0,VALID,4,VALID,0,VALID,24.6879,VALID,207,VALID,0,
2009-04-28, 03:07:04,VALID,1009.54,VALID,0,VALID,4,VALID,0,VALID,24.7074,VALID,207,VALID,0,
2009-04-28, 03:08:04,VALID,1009.54,VALID,0,VALID,4,VALID,0,VALID,24.7055,VALID,207,VALID,0,
2009-04-28, 03:09:04,VALID,1009.56,VALID,0,VALID,4,VALID,0,VALID,24.7269,VALID,207,VALID,0,
2009-04-28, 03:10:04,VALID,1009.59,VALID,0,VALID,4,VALID,0,VALID,24.7445,VALID,207,VALID,0,
2009-04-28, 03:11:04,VALID,1009.61,VALID,0,VALID,4,VALID,0,VALID,24.7659,VALID,207,VALID,0,
2009-04-28, 03:12:04,VALID,1009.62,VALID,0,VALID,4,VALID,0,VALID,24.7445,VALID,207,VALID,0,
2009-04-28, 03:13:04,VALID,1009.62,VALID,0,VALID,4,VALID,0,VALID,24.7445,VALID,207,VALID,0,
2009-04-28, 03:14:04,VALID,1009.6,VALID,0,VALID,4,VALID,0,VALID,24.764,VALID,207,VALID,0,
2009-04-28, 03:15:04,VALID,1009.61,VALID,0,VALID,4,VALID,0,VALID,24.764,VALID,207,VALID,0,
2009-04-28, 03:16:04,VALID,1009.59,VALID,0,VALID,4,VALID,0,VALID,24.764,VALID,207,VALID,0,
2009-04-28, 03:17:04,VALID,1009.61,VALID,0,VALID,4,VALID,0,VALID,24.764,VALID,207,VALID,0,
2009-04-28, 03:18:04,VALID,1009.63,VALID,0,VALID,4,VALID,0,VALID,24.8049,VALID,207,VALID,0,
2009-04-28, 03:19:04,VALID,1009.65,VALID,0,VALID,4,VALID,0,VALID,24.7835,VALID,207,VALID,0,
2009-04-28, 03:20:04,VALID,1009.69,VALID,0,VALID,4,VALID,0,VALID,24.7835,VALID,207,VALID,0,
2009-04-28, 03:21:04,VALID,1009.74,VALID,0,VALID,4,VALID,0,VALID,24.7835,VALID,207,VALID,0.179297,
2009-04-28, 03:22:04,VALID,1009.75,VALID,0,VALID,4,VALID,0,VALID,24.8244,VALID,207,VALID,0.160547,
2009-04-28, 03:23:04,VALID,1009.77,VALID,0,VALID,4,VALID,0,VALID,24.803,VALID,207,VALID,0,
2009-04-28, 03:24:04,VALID,1009.81,VALID,0,VALID,4,VALID,0,VALID,24.8244,VALID,207,VALID,0.185937,
2009-04-28, 03:25:04,VALID,1009.84,VALID,0,VALID,4,VALID,0,VALID,24.8438,VALID,207,VALID,0.248828,
2009-04-28, 03:26:04,VALID,1009.85,VALID,0,VALID,4,VALID,0,VALID,24.8438,VALID,110,VALID,0.249609,
2009-04-28, 03:27:04,VALID,1009.87,VALID,0,VALID,4,VALID,0,VALID,24.803,VALID,110,VALID,0.300391,
2009-04-28, 03:28:04,VALID,1009.89,VALID,0,VALID,4,VALID,0,VALID,24.8225,VALID,106,VALID,0.359375,
2009-04-28, 03:29:04,VALID,1009.92,VALID,0,VALID,4,VALID,0,VALID,24.8438,VALID,104,VALID,0.325,
2009-04-28, 03:30:04,VALID,1009.91,VALID,0,VALID,4,VALID,0,VALID,24.8225,VALID,102,VALID,0.377734,
2009-04-28, 03:31:04,VALID,1009.94,VALID,0,VALID,4,VALID,0,VALID,24.8633,VALID,85,VALID,0.384375,
2009-04-28, 03:32:04,VALID,1009.96,VALID,0,VALID,4,VALID,0,VALID,24.8438,VALID,75,VALID,0.241797,
2009-04-28, 03:33:04,VALID,1009.99,VALID,0,VALID,4,VALID,0,VALID,24.8633,VALID,66,VALID,0.580469,
2009-04-28, 03:34:04,VALID,1010.01,VALID,0,VALID,4,VALID,0,VALID,24.8438,VALID,66,VALID,0.223047,
2009-04-28, 03:35:04,VALID,1010.02,VALID,0,VALID,4,VALID,0,VALID,24.8633,VALID,66,VALID,0.00117188,
2009-04-28, 03:36:04,VALID,1010.05,VALID,0,VALID,4,VALID,0,VALID,24.8633,VALID,66,VALID,0.0121094,
2009-04-28, 03:37:04,VALID,1010.05,VALID,0,VALID,4,VALID,0,VALID,24.8633,VALID,72,VALID,0,
2009-04-28, 03:38:04,VALID,1010.04,VALID,0,VALID,4,VALID,0,VALID,24.8633,VALID,85,VALID,0,
2009-04-28, 03:39:04,VALID,1010.05,VALID,0,VALID,4,VALID,0,VALID,24.8633,VALID,85,VALID,0,
2009-04-28, 03:40:04,VALID,1010.04,VALID,0,VALID,4,VALID,0,VALID,24.8633,VALID,85,VALID,0,
2009-04-28, 03:41:04,VALID,1010.06,VALID,0,VALID,4,VALID,0,VALID,24.8438,VALID,71,VALID,0.428125,
2009-04-28, 03:42:04,VALID,1010.05,VALID,0,VALID,4,VALID,0,VALID,24.8633,VALID,71,VALID,0.320313,
2009-04-28, 03:43:04,VALID,1010.03,VALID,0,VALID,4,VALID,0,VALID,24.8633,VALID,62,VALID,0.551172,
2009-04-28, 03:44:04,VALID,1010.03,VALID,0,VALID,4,VALID,0.105969,VALID,24.8615,VALID,69,VALID,0.606641,
2009-04-28, 03:45:04,VALID,1010.05,VALID,0,VALID,4,VALID,0,VALID,24.8615,VALID,67,VALID,0.295703,
2009-04-28, 03:46:04,VALID,1010.02,VALID,0,VALID,4,VALID,0.105969,VALID,24.8809,VALID,67,VALID,0.473047,
2009-04-28, 03:47:04,VALID,1010.01,VALID,0,VALID,4,VALID,0.105969,VALID,24.8615,VALID,47,VALID,0.609375,
2009-04-28, 03:48:04,VALID,1010.03,VALID,0,VALID,4,VALID,0.105969,VALID,24.8615,VALID,59,VALID,0.607813,
2009-04-28, 03:49:04,VALID,1010.04,VALID,0,VALID,4,VALID,0.105969,VALID,24.842,VALID,55,VALID,0.348437,
2009-04-28, 03:50:04,VALID,1010.01,VALID,0,VALID,4,VALID,0.105969,VALID,24.842,VALID,55,VALID,0.05625,
2009-04-28, 03:51:04,VALID,1010.01,VALID,0,VALID,4,VALID,0.105969,VALID,24.8225,VALID,55,VALID,0,
2009-04-28, 03:52:04,VALID,1010.02,VALID,0,VALID,4,VALID,0,VALID,24.8438,VALID,55,VALID,0,
2009-04-28, 03:53:04,VALID,1010,VALID,0,VALID,4,VALID,0.105969,VALID,24.8225,VALID,57,VALID,0,
2009-04-28, 03:54:04,VALID,1009.99,VALID,0,VALID,4,VALID,0.105969,VALID,24.8225,VALID,61,VALID,0,
2009-04-28, 03:55:04,VALID,1009.97,VALID,0,VALID,4,VALID,0.105969,VALID,24.8225,VALID,61,VALID,0,
2009-04-28, 03:56:04,VALID,1009.95,VALID,0,VALID,4,VALID,0,VALID,24.803,VALID,61,VALID,0,
2009-04-28, 03:57:04,VALID,1009.94,VALID,0,VALID,4,VALID,0,VALID,24.8011,VALID,61,VALID,0,
2009-04-28, 03:58:04,VALID,1009.93,VALID,0,VALID,4,VALID,0.105969,VALID,24.7816,VALID,73,VALID,0,
2009-04-28, 03:59:04,VALID,1009.93,VALID,0,VALID,4,VALID,0,VALID,24.8244,VALID,96,VALID,0,
2009-04-28, 04:00:04,VALID,1009.92,VALID,0,VALID,4,VALID,0,VALID,24.8049,VALID,96,VALID,0,
2009-04-28, 04:01:04,VALID,1009.93,VALID,0,VALID,4,VALID,0,VALID,24.8244,VALID,96,VALID,0,
2009-04-28, 04:02:04,VALID,1009.95,VALID,0,VALID,4,VALID,0,VALID,24.8244,VALID,96,VALID,0,
2009-04-28, 04:03:04,VALID,1009.95,VALID,0,VALID,4,VALID,0,VALID,24.8244,VALID,96,VALID,0,
2009-04-28, 04:04:04,VALID,1009.98,VALID,0,VALID,4,VALID,0,VALID,24.8049,VALID,96,VALID,0,
2009-04-28, 04:05:04,VALID,1009.99,VALID,0,VALID,4,VALID,0,VALID,24.8244,VALID,96,VALID,0,